EHI
20 20 22 24 28 34 37 35 32 29 23 17 14 12 9 7 7 9 12 12 7 5 6 7 7 8 9 10 10 8 5 4 4 4 3 4 7 11 14 15 15 12 8
31 32 30 28 31 36 38 37 34 31 26 22 17 14 10 7 7 9 13 15 11 7 5 6 6 7 9 11 11 9 7 6 5 5 4 5 6 8 10 12 12 9 7
42 44 42 37 35 37 38 38 38 34 30 26 20 15 12 9 8 10 16 18 15 10 8 7 7 8 10 12 12 12 11 9 6 5 6 6 6 7 8 8 8 7 6
45 48 49 45 40 37 38 42 44 40 34 30 25 20 17 12 10 12 16 17 16 13 11 11 12 12 12 13 12 13 15 12 6 5 7 8 8 8 7 6 5 5 6
41 48 52 48 42 38 40 47 50 46 40 35 32 29 24 18 14 14 14 15 15 13 12 15 17 16 15 15 14 14 15 14 9 7 8 8 9 9 8 6 5 5 5
38 47 51 48 42 40 42 47 50 48 43 39 36 33 28 23 18 15 14 13 14 13 14 17 20 20 19 19 18 16 14 13 11 10 10 9 9 10 9 7 6 6 6
38 46 51 49 45 42 42 45 48 47 43 41 38 35 31 25 20 16 14 14 14 14 16 19 23 23 22 21 18 16 15 14 13 13 12 10 10 9 8 7 7 7 7
39 44 49 49 45 42 41 43 47 47 43 41 41 40 35 28 22 18 15 15 15 15 17 20 23 23 22 20 18 16 17 19 17 16 14 13 11 9 8 9 8 6 7
36 37 41 43 41 38 37 40 46 48 45 44 44 42 38 31 25 21 19 17 17 16 18 20 20 21 22 23 23 21 21 23 22 19 18 17 14 10 8 10 10 8 7
33 34 36 37 36 33 33 38 44 48 48 47 45 42 39 33 27 25 24 22 21 19 19 19 19 20 24 28 29 27 24 24 23 21 21 21 19 13 11 13 13 11 10
34 36 38 37 34 31 31 36 44 49 51 50 45 41 38 34 30 28 28 28 25 21 19 18 18 20 23 27 30 27 23 20 21 22 22 23 21 17 16 15 15 14 13
33 35 37 37 34 31 32 36 43 49 50 49 46 42 38 35 32 30 31 31 27 22 20 19 19 18 19 23 23 21 19 18 19 22 23 23 21 19 16 15 14 13 12
31 32 33 34 34 33 33 36 38 41 43 45 44 42 38 35 33 31 30 31 28 24 22 21 20 17 16 18 18 17 18 20 21 23 23 22 21 20 16 14 13 12 9
31 32 33 34 35 36 36 34 33 33 35 39 40 40 37 34 31 30 30 30 28 25 22 20 18 16 14 14 15 16 17 20 22 23 22 21 20 18 16 13 12 11 9
32 34 35 36 38 39 37 33 31 30 32 34 35 35 34 32 31 31 31 30 28 23 20 18 17 14 11 10 12 14 16 18 21 21 20 18 15 12 10 8 9 10 10
30 33 35 36 38 38 35 31 30 31 33 34 33 32 31 31 31 31 30 29 25 22 20 18 16 12 9 7 9 11 14 17 18 17 15 13 9 6 4 3 4 6 7
26 31 33 33 33 33 31 29 29 31 34 34 32 30 29 28 27 26 26 25 23 22 22 19 14 11 9 7 6 8 11 15 15 14 12 10 6 5 4 3 2 3 4
23 28 30 30 30 29 27 26 26 29 31 30 29 27 26 24 23 23 24 24 22 22 21 17 13 10 9 6 3 4 8 12 12 11 10 8 6 6 7 7 7 6 5
26 28 28 29 29 28 26 24 23 26 27 27 25 23 22 21 22 23 25 25 24 22 19 15 12 10 9 5 2 2 6 8 9 9 8 7 6 5 7 10 12 10 7
30 30 29 29 31 31 28 24 23 24 26 25 24 22 21 21 22 23 25 25 25 23 19 16 13 12 10 6 1 2 6 7 7 9 9 6 4 3 4 9 12 10 7
31 31 31 31 33 33 30 26 24 23 24 24 23 22 22 22 22 23 25 25 24 23 20 18 16 13 11 7 2 2 6 8 9 10 10 6 2 0 1 5 8 8 6
30 31 32 32 34 34 30 25 23 23 21 21 22 23 23 22 21 22 24 24 22 20 19 18 16 13 11 7 3 1 3 7 10 11 9 4 1 0 0 1 3 3 2
27 29 30 31 32 31 27 23 21 21 20 20 22 23 23 22 21 20 21 20 19 17 16 16 15 13 11 9 4 1 1 4 8 9 5 2 0 0 0 0 1 1 1
25 27 29 29 29 29 26 22 20 19 19 19 20 21 20 19 19 18 17 17 15 15 16 16 16 15 13 11 8 4 3 4 6 6 3 1 0 0 0 0 1 2 4
24 27 29 28 27 27 26 23 20 18 17 17 17 16 15 14 15 15 14 13 11 12 13 14 15 14 13 11 8 5 4 4 5 5 4 2 1 1 1 1 3 4 5
24 26 28 28 26 25 24 22 20 18 16 15 15 13 11 11 13 12 11 9 7 7 8 10 12 12 11 8 5 3 3 3 3 4 5 4 3 3 3 3 4 5 5
Wind_Speed
7 8 8 8 9 8 7 6 5 5 3 2 2 1 1 1 1 1 2 2 2 1 2 2 1 1 1 0 0 1 1 1 1 1 1 2 2 2 1 1 1 1 2
8 8 8 8 9 8 7 6 5 5 4 3 2 2 1 1 1 1 1 1 1 1 2 1 1 1 1 1 1 1 1 2 1 1 1 1 1 1 1 1 2 1 1
10 9 8 8 8 8 7 6 5 5 4 3 2 2 1 1 1 1 1 1 1 1 2 2 2 1 2 1 2 2 2 2 2 1 1 1 1 1 0 1 1 1 1
9 9 8 7 8 8 7 6 6 5 4 3 3 3 2 2 2 1 1 1 2 2 3 2 2 2 1 2 3 2 2 2 2 1 1 2 0 0 1 1 0 1 1
8 9 8 7 7 7 7 7 6 5 4 3 2 2 2 1 1 1 1 2 2 3 3 3 2 2 2 2 2 1 2 2 2 2 1 1 1 2 1 1 1 1 1
7 8 8 7 6 7 7 7 7 5 4 4 3 2 2 2 2 1 1 2 2 2 2 2 2 2 2 2 2 2 2 2 2 2 2 1 1 1 1 1 1 1 1
7 7 7 7 6 7 7 7 7 6 5 4 3 3 2 2 2 2 2 2 1 1 1 2 2 2 2 2 2 2 2 2 3 3 2 2 2 1 1 1 1 1 1
6 6 7 7 6 6 6 6 7 6 6 5 4 3 3 2 2 2 2 2 2 2 1 2 2 2 2 3 2 2 3 2 3 3 2 2 2 2 1 1 1 1 1
5 5 6 6 6 6 6 5 6 6 6 5 4 4 3 2 2 2 2 2 2 2 1 2 2 2 2 2 2 2 2 2 2 2 2 2 2 2 2 1 2 2 2
5 5 4 5 5 5 5 4 6 6 5 5 4 4 3 3 2 2 2 1 1 2 1 2 2 2 2 2 2 2 2 1 2 2 2 2 2 2 2 2 1 1 2
5 4 4 5 4 4 4 3 4 5 5 5 4 3 3 3 3 3 2 2 1 1 1 2 2 2 2 1 2 2 2 2 2 2 2 3 2 2 2 1 1 1 1
5 5 4 4 4 3 3 3 2 4 4 4 4 3 3 2 3 3 2 1 1 1 2 2 2 3 2 2 2 3 3 3 3 2 2 3 2 2 2 1 1 1 2
4 4 5 4 3 3 2 2 2 3 4 4 4 3 3 3 2 2 1 1 1 2 2 2 2 3 3 2 3 3 3 3 3 3 3 3 2 2 2 2 2 2 2
4 4 4 3 3 2 2 1 1 1 2 3 3 3 2 2 2 2 1 2 2 2 2 2 3 3 3 2 2 3 4 3 3 3 3 3 3 3 3 3 3 2 2
3 3 3 3 2 2 1 1 1 1 1 1 2 2 1 1 2 2 2 2 2 3 2 2 2 3 3 2 2 3 4 3 3 3 4 3 3 3 3 3 2 3 3
3 3 3 3 2 1 1 1 1 1 1 0 1 1 1 1 1 1 1 1 2 2 2 2 2 2 2 3 3 3 4 3 3 3 3 3 2 2 3 4 4 4 4
2 2 2 2 2 1 1 1 1 1 1 1 0 0 1 1 1 2 1 2 2 2 2 2 2 2 2 3 3 4 4 3 3 3 3 4 3 2 2 2 3 4 5
2 2 2 1 1 2 2 1 0 1 1 0 0 0 1 1 1 2 2 2 2 2 2 2 2 2 2 2 3 4 3 3 3 2 2 2 2 2 2 3 2 3 2
3 2 1 2 2 2 2 1 1 1 1 0 1 1 1 1 2 2 2 2 1 1 2 1 1 2 2 2 2 2 3 2 2 2 1 1 1 2 2 2 2 2 2
3 3 3 3 3 3 2 1 2 2 1 1 1 1 1 2 2 1 1 1 1 2 2 2 2 2 1 1 0 1 2 2 2 1 0 0 1 1 1 1 1 2 2
4 3 3 3 3 3 3 2 2 2 2 1 1 1 1 2 1 1 1 1 1 2 2 2 2 2 2 2 1 1 1 2 2 1 1 0 0 1 2 3 2 3 2
4 3 3 3 3 3 3 2 2 2 2 1 1 1 1 1 1 1 1 1 1 1 2 2 2 2 2 2 2 2 2 2 2 2 1 1 1 2 3 3 3 3 2
3 2 2 2 2 2 2 2 3 3 2 2 1 1 1 1 1 1 1 1 1 2 2 2 2 1 1 1 2 3 3 3 2 2 2 2 3 3 3 3 3 2 1
1 1 1 2 2 2 2 2 2 2 2 1 1 1 0 0 0 0 1 1 1 1 1 1 1 1 0 1 0 1 2 3 2 2 2 2 4 3 2 2 1 1 1
2 1 1 1 1 2 2 2 2 2 1 1 0 1 1 1 1 0 1 1 1 1 1 1 1 1 1 1 1 1 1 2 2 2 1 1 1 1 1 1 0 0 0
1 1 1 1 1 1 1 1 1 1 1 1 1 1 1 1 0 0 1 3 1 2 2 1 0 1 1 1 1 0 1 2 1 0 1 2 1 1 1 1 1 1 1
Wind_Direction
153 148 146 143 143 147 150 153 153 148 158 156 170 185 181 199 197 183 157 169 210 221 261 283 262 253 253 253 303 296 279 278 265 300 295 271 249 216 190 206 186 193 181
156 152 154 152 153 151 152 152 163 162 174 169 182 193 185 208 194 194 132 177 204 226 240 258 257 240 231 230 241 255 275 270 231 238 268 283 302 293 220 167 177 173 168
160 160 163 165 162 163 168 167 162 163 179 172 184 189 171 222 217 196 174 195 212 224 270 259 260 262 239 225 225 219 234 256 270 236 235 253 243 296 303 228 138 148 173
158 160 167 173 172 172 172 161 159 160 170 180 188 195 192 206 212 202 196 215 215 227 234 240 245 256 262 263 248 215 238 250 257 257 250 256 284 239 289 281 184 190 190
160 164 172 173 173 169 167 160 153 161 166 176 189 205 213 204 206 196 207 229 233 236 235 230 233 240 242 262 282 279 260 259 268 267 266 274 269 244 224 261 279 288 245
154 157 162 160 165 165 166 160 154 165 171 181 183 198 228 231 227 226 228 234 229 232 238 243 239 238 241 247 264 267 266 270 286 286 280 271 263 254 233 242 253 263 267
147 149 152 155 164 168 166 164 161 170 174 180 188 197 225 234 234 239 239 254 255 248 235 257 257 252 258 246 246 262 271 262 264 271 278 279 270 265 258 240 259 265 272
133 141 151 156 163 166 164 169 167 170 174 180 188 199 209 230 240 245 250 253 257 248 234 238 241 248 261 261 250 242 252 257 258 265 267 268 272 266 256 233 258 284 273
125 133 146 155 161 168 166 172 162 168 176 182 185 189 201 221 239 242 247 256 268 261 257 230 234 244 257 269 272 263 261 266 261 261 263 265 268 272 265 237 214 221 259
118 122 136 151 157 165 157 160 159 168 173 183 192 196 200 208 230 242 248 264 272 286 287 280 267 252 244 252 266 268 267 273 282 264 263 266 266 272 269 257 240 207 218
112 114 121 136 139 142 145 147 162 167 174 182 185 192 196 204 217 234 241 253 269 265 259 272 280 275 261 253 258 268 263 262 274 281 273 261 263 274 284 277 265 243 219
99 110 115 119 125 131 138 151 163 173 175 177 180 190 199 204 217 227 233 241 262 262 256 255 260 265 268 260 257 263 266 257 262 265 268 265 257 259 263 269 250 238 231
96 110 118 110 105 111 121 143 181 186 183 183 190 194 207 210 226 236 228 226 241 259 263 266 264 266 271 268 270 271 274 270 266 261 255 262 260 258 258 250 245 248 248
99 105 113 106 97 93 106 138 187 181 185 180 195 202 215 220 230 248 231 227 230 238 253 259 265 268 271 273 282 285 273 270 271 271 263 261 256 252 250 239 231 240 243
106 102 104 103 102 98 90 105 125 116 118 192 202 201 215 223 237 240 235 232 238 244 251 259 261 264 260 272 292 287 277 279 278 277 275 262 258 251 246 247 227 233 235
78 80 95 106 108 100 79 57 50 77 107 145 233 199 202 216 232 237 225 239 243 261 263 259 260 269 278 301 292 287 287 279 275 277 281 266 258 245 245 242 233 229 227
78 71 85 94 128 126 95 66 45 103 115 123 236 198 205 213 235 247 233 246 244 249 261 261 254 254 272 298 298 293 280 274 269 269 274 277 280 278 277 252 228 230 225
75 76 78 78 64 100 82 45 107 134 130 141 276 306 275 252 251 246 238 241 241 247 251 255 265 264 279 298 302 299 268 264 265 271 269 277 307 301 313 275 255 248 251
63 62 66 80 71 64 72 39 11 88 94 15 332 323 276 263 271 254 245 243 239 251 247 244 260 270 279 290 295 292 272 264 268 261 277 265 261 331 327 286 266 267 272
65 53 44 59 61 56 70 60 31 46 37 3 341 339 325 295 274 265 257 246 233 230 241 247 246 255 258 209 247 283 266 272 272 249 214 265 288 313 318 298 271 262 266
68 63 45 45 54 45 49 53 36 21 10 358 7 357 346 304 284 279 268 234 227 226 230 250 253 243 245 175 175 225 261 283 287 279 270 280 292 331 321 310 286 254 258
66 58 44 38 43 37 36 28 23 17 21 29 21 350 335 306 331 348 303 247 225 233 231 238 249 239 215 169 184 202 239 274 295 293 297 256 240 281 297 292 284 281 274
58 63 52 43 40 41 37 23 14 15 21 21 17 5 3 349 3 336 294 271 235 237 243 241 239 243 197 152 176 213 250 281 283 293 307 291 260 255 259 252 259 261 258
26 38 40 29 27 36 45 50 28 25 29 26 7 337 331 260 336 291 267 268 257 252 255 256 273 300 46 76 201 252 259 272 283 300 305 277 262 259 269 256 241 213 222
3 18 28 9 13 38 40 34 28 23 13 18 336 296 305 320 52 41 341 316 352 358 291 301 314 345 325 350 349 252 277 290 314 308 289 274 259 221 239 239 229 244 262
3 8 16 4 14 28 38 30 38 53 14 334 318 282 272 283 216 203 27 29 34 77 69 41 268 27 116 127 67 289 296 303 333 140 250 254 244 240 255 292 289 257 255